TSO510 PANC-UHPP

Flight info

Callsign TSO510
Flight time N/A
Altitude 34000
Route SQA DCT LESAD DCT MARCC/N0454F360 G583 BESAT/K0841F360 G583 KULOD KULOD5N
Aircraft B763/H-SDE3FGHIM3RWXY/LB1

Departure

Time 2026-05-05 19:48
Airport Ted Stevens Anchorage International Airport (PANC)

Arrival

Time N/A
Airport Yelizovo Airport (UHPP)
Time Latitude Longitude Altitude Speed Heading
2026-05-05 19:32 61.17366 -149.98355 166 ft 0 kts 94°
2026-05-05 19:42 61.17367 -149.98369 166 ft 2 kts 94°
2026-05-05 19:42 61.17368 -149.98405 166 ft 3 kts 94°
2026-05-05 19:42 61.17369 -149.98446 166 ft 3 kts 94°
2026-05-05 19:43 61.17370 -149.98488 166 ft 3 kts 94°
2026-05-05 19:43 61.17371 -149.98493 166 ft 4 kts 80°
2026-05-05 19:43 61.17379 -149.98478 166 ft 2 kts 19°
2026-05-05 19:43 61.17397 -149.98561 166 ft 14 kts 227°
2026-05-05 19:44 61.17306 -149.98650 166 ft 12 kts 215°
2026-05-05 19:44 61.17248 -149.98740 166 ft 11 kts 217°
2026-05-05 19:44 61.17185 -149.98867 166 ft 12 kts 230°
2026-05-05 19:44 61.17143 -149.98973 166 ft 8 kts 239°
2026-05-05 19:45 61.17135 -149.99039 166 ft 3 kts 261°
2026-05-05 19:45 61.17132 -149.99073 166 ft 2 kts 261°
2026-05-05 19:45 61.17132 -149.99081 166 ft 0 kts 261°
2026-05-05 19:45 61.17126 -149.99218 166 ft 15 kts 267°
2026-05-05 19:46 61.17125 -149.99409 166 ft 11 kts 271°
2026-05-05 19:46 61.17126 -149.99621 166 ft 16 kts 270°
2026-05-05 19:46 61.17126 -149.99833 166 ft 14 kts 270°
2026-05-05 19:46 61.17123 -150.00196 166 ft 27 kts 270°
2026-05-05 19:47 61.17123 -150.00556 166 ft 22 kts 271°
2026-05-05 19:47 61.17108 -150.00778 166 ft 5 kts 194°
2026-05-05 19:47 61.17052 -150.00778 166 ft 10 kts 180°
2026-05-05 19:47 61.17000 -150.00755 166 ft 5 kts 139°
2026-05-05 19:48 61.16977 -150.00453 166 ft 60 kts 87°
2026-05-05 19:48 61.16978 -149.98962 166 ft 143 kts 88°
2026-05-05 19:48 61.16993 -149.96429 216 ft 208 kts 90°
2026-05-05 19:48 61.17019 -149.93318 1142 ft 223 kts 89°
2026-05-05 19:49 61.17068 -149.89928 2234 ft 246 kts 88°
2026-05-05 19:49 61.17121 -149.87513 2882 ft 259 kts 87°
2026-05-05 19:49 61.17180 -149.82350 3876 ft 281 kts 97°
2026-05-05 19:49 61.16526 -149.78468 4516 ft 281 kts 123°
2026-05-05 19:50 61.15167 -149.75687 5157 ft 280 kts 150°
2026-05-05 19:50 61.13355 -149.74424 5780 ft 277 kts 176°
2026-05-05 19:50 61.11463 -149.74964 6406 ft 274 kts 203°
2026-05-05 19:50 61.09926 -149.77174 7045 ft 270 kts 229°
2026-05-05 19:51 61.09045 -149.80612 7675 ft 273 kts 255°
2026-05-05 19:51 61.09019 -149.84513 8301 ft 274 kts 281°
2026-05-05 19:51 61.09735 -149.88204 8947 ft 281 kts 295°
2026-05-05 19:51 61.10732 -149.91684 9565 ft 284 kts 300°
2026-05-05 19:52 61.11806 -149.95128 10182 ft 287 kts 301°
2026-05-05 19:52 61.12889 -149.98590 10804 ft 290 kts 300°
2026-05-05 19:52 61.14003 -150.02149 11449 ft 298 kts 300°
2026-05-05 19:52 61.15141 -150.05830 12000 ft 307 kts 298°
2026-05-05 19:53 61.15970 -150.09633 12655 ft 303 kts 287°
2026-05-05 19:53 61.16473 -150.13851 13477 ft 299 kts 279°
2026-05-05 19:53 61.16794 -150.18169 13995 ft 305 kts 276°
2026-05-05 19:53 61.17001 -150.22557 14501 ft 311 kts 274°
2026-05-05 19:54 61.17135 -150.27061 15139 ft 311 kts 272°
2026-05-05 19:54 61.17205 -150.31548 15745 ft 314 kts 271°
2026-05-05 19:54 61.17255 -150.36121 16274 ft 318 kts 270°
2026-05-05 19:54 61.17299 -150.40710 16853 ft 320 kts 270°
2026-05-05 19:55 61.17341 -150.45390 17343 ft 325 kts 270°
2026-05-05 19:55 61.17375 -150.50051 18035 ft 322 kts 270°
2026-05-05 19:55 61.17380 -150.54717 18556 ft 326 kts 269°
2026-05-05 19:55 61.17366 -150.59416 18930 ft 334 kts 269°
2026-05-05 19:56 61.17351 -150.64282 19381 ft 337 kts 269°
2026-05-05 19:56 61.17336 -150.69105 20026 ft 336 kts 269°
2026-05-05 19:56 61.17320 -150.73982 20511 ft 340 kts 269°
2026-05-05 19:56 61.17311 -150.78973 20835 ft 348 kts 269°
2026-05-05 19:57 61.17308 -150.84079 21094 ft 357 kts 269°
2026-05-05 19:57 61.17320 -150.87542 21253 ft 364 kts 270°
2026-05-05 19:57 61.17371 -150.94664 21587 ft 375 kts 270°
2026-05-05 19:57 61.17407 -151.00092 21815 ft 384 kts 270°
2026-05-05 19:58 61.17440 -151.05679 22105 ft 391 kts 270°
2026-05-05 19:58 61.17465 -151.11379 22375 ft 397 kts 270°
2026-05-05 19:58 61.17492 -151.17138 22713 ft 401 kts 269°
2026-05-05 19:58 61.17509 -151.22928 23045 ft 406 kts 269°
2026-05-05 19:59 61.17482 -151.28892 23388 ft 409 kts 269°
2026-05-05 19:59 61.17443 -151.34734 23699 ft 413 kts 269°
2026-05-05 19:59 61.17412 -151.40736 24061 ft 416 kts 269°
2026-05-05 19:59 61.17376 -151.46759 24435 ft 418 kts 269°
2026-05-05 20:00 61.17333 -151.52732 24887 ft 417 kts 269°
2026-05-05 20:00 61.17297 -151.58762 25216 ft 420 kts 269°
2026-05-05 20:00 61.17272 -151.62842 25437 ft 422 kts 269°
2026-05-05 20:00 61.17236 -151.68927 25737 ft 425 kts 269°
2026-05-05 20:01 61.17200 -151.75125 26040 ft 427 kts 269°
2026-05-05 20:01 61.17170 -151.81307 26267 ft 432 kts 269°
2026-05-05 20:01 61.17148 -151.87560 26493 ft 436 kts 269°
2026-05-05 20:01 61.17129 -151.93835 26831 ft 438 kts 269°
2026-05-05 20:02 61.17101 -152.00140 27058 ft 441 kts 269°
2026-05-05 20:02 61.17089 -152.06515 27408 ft 441 kts 269°
2026-05-05 20:02 61.17072 -152.12845 27888 ft 439 kts 269°
2026-05-05 20:02 61.17042 -152.19206 28219 ft 440 kts 269°
2026-05-05 20:03 61.17018 -152.25573 28446 ft 443 kts 269°
2026-05-05 20:03 61.16983 -152.31940 28776 ft 444 kts 268°
2026-05-05 20:03 61.16900 -152.38379 29026 ft 447 kts 268°
2026-05-05 20:03 61.16809 -152.44807 29257 ft 449 kts 268°
2026-05-05 20:04 61.16720 -152.51304 29584 ft 449 kts 268°
2026-05-05 20:04 61.16637 -152.57767 29971 ft 448 kts 268°
2026-05-05 20:04 61.16563 -152.64193 30259 ft 449 kts 268°
2026-05-05 20:04 61.16478 -152.70642 30501 ft 451 kts 268°
2026-05-05 20:05 61.16377 -152.77205 30708 ft 453 kts 268°
2026-05-05 20:05 61.16272 -152.83715 30921 ft 455 kts 268°
2026-05-05 20:05 61.16173 -152.90302 31094 ft 458 kts 268°
2026-05-05 20:05 61.16081 -152.96885 31281 ft 460 kts 268°
2026-05-05 20:06 61.15987 -153.03481 31523 ft 461 kts 268°
2026-05-05 20:06 61.15904 -153.10168 31818 ft 459 kts 268°
2026-05-05 20:06 61.15826 -153.16733 32133 ft 458 kts 268°
2026-05-05 20:06 61.15742 -153.23317 32464 ft 456 kts 268°
2026-05-05 20:07 61.15646 -153.29943 32661 ft 457 kts 268°
2026-05-05 20:07 61.15550 -153.36494 32848 ft 458 kts 268°
2026-05-05 20:07 61.15441 -153.43143 33046 ft 458 kts 267°
2026-05-05 20:07 61.15324 -153.49700 33252 ft 458 kts 267°
2026-05-05 20:08 61.15199 -153.56295 33428 ft 459 kts 267°
2026-05-05 20:08 61.15070 -153.62958 33626 ft 459 kts 267°
2026-05-05 20:08 61.14946 -153.69485 33795 ft 460 kts 267°
2026-05-05 20:08 61.14818 -153.76165 33930 ft 461 kts 267°
2026-05-05 20:09 61.14689 -153.82772 34007 ft 463 kts 267°
2026-05-05 20:09 61.14546 -153.89509 34149 ft 464 kts 267°
2026-05-05 20:09 61.14393 -153.96168 34354 ft 463 kts 267°
2026-05-05 20:09 61.14261 -154.02750 34489 ft 463 kts 267°
2026-05-05 20:10 61.14134 -154.09404 34664 ft 463 kts 267°
2026-05-05 20:10 61.14008 -154.16097 34847 ft 462 kts 267°
2026-05-05 20:10 61.13878 -154.22772 35095 ft 460 kts 267°
2026-05-05 20:10 61.13754 -154.29397 35279 ft 459 kts 267°
2026-05-05 20:11 61.13621 -154.35943 35432 ft 459 kts 266°
2026-05-05 20:11 61.13442 -154.42542 35568 ft 459 kts 266°
2026-05-05 20:11 61.13244 -154.49121 35688 ft 460 kts 266°
2026-05-05 20:11 61.13046 -154.55789 35825 ft 460 kts 266°
2026-05-05 20:12 61.12854 -154.62354 35973 ft 459 kts 266°
2026-05-05 20:12 61.12668 -154.68970 36115 ft 459 kts 266°
2026-05-05 20:12 61.12490 -154.75546 36260 ft 459 kts 266°
2026-05-05 20:12 61.12314 -154.82195 36412 ft 458 kts 266°
2026-05-05 20:13 61.12150 -154.88713 36527 ft 458 kts 267°
2026-05-05 20:13 61.11997 -154.95358 36647 ft 458 kts 267°
2026-05-05 20:13 61.11840 -155.01940 36790 ft 457 kts 266°
2026-05-05 20:13 61.11670 -155.08436 36928 ft 456 kts 266°
2026-05-05 20:14 61.11477 -155.14980 37066 ft 455 kts 265°
2026-05-05 20:14 61.11255 -155.21502 37206 ft 454 kts 265°
2026-05-05 20:14 61.11044 -155.28018 37370 ft 453 kts 266°
2026-05-05 20:14 61.10838 -155.34572 37526 ft 451 kts 266°
2026-05-05 20:15 61.10644 -155.40994 37716 ft 449 kts 266°
2026-05-05 20:15 61.10439 -155.47411 37874 ft 448 kts 265°
2026-05-05 20:15 61.10237 -155.53812 38035 ft 446 kts 265°
2026-05-05 20:15 61.10023 -155.60173 38207 ft 444 kts 265°
2026-05-05 20:16 61.09861 -155.66536 38345 ft 443 kts 270°
2026-05-05 20:16 61.10023 -155.72890 38511 ft 441 kts 275°
2026-05-05 20:16 61.10362 -155.79189 38676 ft 439 kts 276°
2026-05-05 20:16 61.10759 -155.85419 38877 ft 436 kts 277°
2026-05-05 20:17 61.11171 -155.91656 39045 ft 434 kts 277°
2026-05-05 20:17 61.11583 -155.97848 39268 ft 429 kts 277°
2026-05-05 20:17 61.11973 -156.03902 39531 ft 424 kts 276°
2026-05-05 20:17 61.12340 -156.09894 39728 ft 420 kts 276°
2026-05-05 20:18 61.12688 -156.15895 39853 ft 417 kts 276°
2026-05-05 20:18 61.13351 -156.27794 39987 ft 416 kts 276°
2026-05-05 20:19 61.14008 -156.39680 39996 ft 417 kts 275°
2026-05-05 20:19 61.14574 -156.51680 40012 ft 418 kts 275°
2026-05-05 20:20 61.15157 -156.63676 40011 ft 419 kts 275°
2026-05-05 20:20 61.15741 -156.75701 40170 ft 416 kts 275°
2026-05-05 20:20 61.16014 -156.81630 40380 ft 411 kts 274°
2026-05-05 20:21 61.16279 -156.87471 40548 ft 407 kts 275°
2026-05-05 20:21 61.16546 -156.93260 40732 ft 402 kts 275°
2026-05-05 20:21 61.16814 -156.99019 40894 ft 397 kts 275°
2026-05-05 20:21 61.17085 -157.04669 41073 ft 391 kts 275°
2026-05-05 20:22 61.17353 -157.10229 41263 ft 385 kts 274°
2026-05-05 20:22 61.17577 -157.15644 41538 ft 375 kts 274°
2026-05-05 20:22 61.17794 -157.21101 41743 ft 367 kts 274°
2026-05-05 20:22 61.18005 -157.26262 41885 ft 360 kts 274°
2026-05-05 20:23 61.18213 -157.31427 41987 ft 354 kts 274°
2026-05-05 20:23 61.18607 -157.41459 42010 ft 346 kts 274°
2026-05-05 20:24 61.18990 -157.51297 41998 ft 337 kts 274°
2026-05-05 20:24 61.19355 -157.60795 41763 ft 322 kts 274°
2026-05-05 20:24 61.19535 -157.65405 40220 ft 322 kts 274°
2026-05-05 20:25 61.19730 -157.70077 38229 ft 324 kts 274°
2026-05-05 20:25 61.19937 -157.74773 37344 ft 326 kts 274°
2026-05-05 20:25 61.20135 -157.79292 37768 ft 309 kts 274°
2026-05-05 20:25 61.20332 -157.83634 38118 ft 296 kts 274°
2026-05-05 20:26 61.20519 -157.87760 38070 ft 288 kts 274°
2026-05-05 20:26 61.20705 -157.91923 36037 ft 292 kts 274°
2026-05-05 20:26 61.20906 -157.96622 32215 ft 373 kts 274°
2026-05-05 20:26 61.21138 -158.02680 29704 ft 461 kts 274°
2026-05-05 20:27 61.21406 -158.09570 28643 ft 497 kts 274°
2026-05-05 20:27 61.21700 -158.16836 28745 ft 501 kts 274°
2026-05-05 20:27 61.21987 -158.23998 29551 ft 487 kts 274°
2026-05-05 20:27 61.22227 -158.30797 30493 ft 471 kts 273°
2026-05-05 20:28 61.22432 -158.37518 31253 ft 461 kts 273°
2026-05-05 20:28 61.22847 -158.44090 31585 ft 461 kts 283°
2026-05-05 20:28 61.24071 -158.50323 31853 ft 463 kts 299°
2026-05-05 20:28 61.26058 -158.55550 32048 ft 467 kts 315°
2026-05-05 20:29 61.28702 -158.59495 32316 ft 470 kts 330°
2026-05-05 20:29 61.31752 -158.61818 32518 ft 475 kts 346°
2026-05-05 20:29 61.35064 -158.62354 32712 ft 479 kts
2026-05-05 20:29 61.38340 -158.60972 32882 ft 484 kts 18°
2026-05-05 20:30 61.41369 -158.57713 33086 ft 487 kts 34°
2026-05-05 20:30 61.43833 -158.52938 33254 ft 490 kts 50°
2026-05-05 20:30 61.45126 -158.48995 33374 ft 491 kts 60°
2026-05-05 20:30 61.46627 -158.40082 33549 ft 493 kts 81°
2026-05-05 20:31 61.46801 -158.35267 33656 ft 492 kts 91°
2026-05-05 20:31 61.46537 -158.28147 33851 ft 491 kts 98°
2026-05-05 20:31 61.46035 -158.21082 34094 ft 490 kts 100°
2026-05-05 20:31 61.45494 -158.14053 34294 ft 490 kts 99°
2026-05-05 20:32 61.45043 -158.06903 34472 ft 491 kts 97°
2026-05-05 20:32 61.44663 -157.99809 34647 ft 491 kts 97°
2026-05-05 20:32 61.44303 -157.92684 34838 ft 491 kts 97°
2026-05-05 20:32 61.43940 -157.85610 34964 ft 492 kts 97°
2026-05-05 20:33 61.43532 -157.78536 35105 ft 492 kts 98°
2026-05-05 20:33 61.43103 -157.71436 35303 ft 491 kts 98°
2026-05-05 20:33 61.42659 -157.64340 35457 ft 492 kts 98°
2026-05-05 20:33 61.42202 -157.57293 35669 ft 490 kts 98°
2026-05-05 20:34 61.41735 -157.50210 35837 ft 490 kts 99°
2026-05-05 20:34 61.41261 -157.43181 35965 ft 490 kts 99°
2026-05-05 20:34 61.40773 -157.36069 36121 ft 490 kts 99°
2026-05-05 20:34 61.40291 -157.29079 36327 ft 488 kts 99°
2026-05-05 20:35 61.39809 -157.22029 36485 ft 488 kts 99°
2026-05-05 20:35 61.39333 -157.15039 36640 ft 487 kts 98°
2026-05-05 20:35 61.38870 -157.08052 36826 ft 486 kts 98°
2026-05-05 20:35 61.38423 -157.01087 36974 ft 486 kts 98°
2026-05-05 20:36 61.37958 -156.94020 37125 ft 485 kts 98°
2026-05-05 20:36 61.37486 -156.87102 37285 ft 484 kts 99°
2026-05-05 20:36 61.37014 -156.80170 37430 ft 483 kts 99°
2026-05-05 20:36 61.36538 -156.73313 37589 ft 482 kts 99°
2026-05-05 20:37 61.36044 -156.66392 37753 ft 480 kts 99°
2026-05-05 20:37 61.35551 -156.59512 37917 ft 479 kts 99°
2026-05-05 20:37 61.35073 -156.52682 38094 ft 477 kts 99°
2026-05-05 20:37 61.34609 -156.45831 38259 ft 475 kts 98°
2026-05-05 20:38 61.34134 -156.38967 38416 ft 474 kts 99°
2026-05-05 20:38 61.33640 -156.32302 38572 ft 472 kts 100°
2026-05-05 20:38 61.33117 -156.25550 38724 ft 470 kts 100°
2026-05-05 20:38 61.32596 -156.18827 38884 ft 468 kts 100°
2026-05-05 20:39 61.32087 -156.12174 39124 ft 464 kts 100°
2026-05-05 20:39 61.31592 -156.05565 39300 ft 461 kts 99°
2026-05-05 20:39 61.31104 -155.98923 39492 ft 458 kts 100°
2026-05-05 20:39 61.30618 -155.92418 39702 ft 454 kts 100°
2026-05-05 20:40 61.30123 -155.85995 39847 ft 451 kts 100°
2026-05-05 20:40 61.29109 -155.73100 39972 ft 450 kts 100°
2026-05-05 20:41 61.28084 -155.60267 39976 ft 452 kts 100°
2026-05-05 20:41 61.27067 -155.47310 39975 ft 455 kts 100°
2026-05-05 20:42 61.26026 -155.34343 39994 ft 457 kts 101°
2026-05-05 20:42 61.24927 -155.21316 39999 ft 459 kts 100°
2026-05-05 20:43 61.23856 -155.08167 40007 ft 461 kts 100°
2026-05-05 20:43 61.22782 -154.94971 40000 ft 464 kts 101°
2026-05-05 20:44 61.21606 -154.81774 40004 ft 466 kts 101°
2026-05-05 20:44 61.20443 -154.68580 39995 ft 469 kts 101°
2026-05-05 20:45 61.21802 -154.50324 37874 ft 426 kts 343°
2026-05-05 20:45 61.24184 -154.47132 34200 ft 361 kts 145°
2026-05-05 20:45 61.25002 -154.44255 24570 ft 359 kts 63°
2026-05-05 20:46 61.25185 -154.41740 13201 ft 201 kts 291°
2026-05-05 20:46 61.25471 -154.45677 5853 ft 330 kts 219°
2026-05-05 20:46 61.24509 -154.49276 3522 ft 249 kts 220°
2026-05-05 20:46 61.23737 -154.52004 1361 ft 197 kts 197°